Flag for USA

Past Weather in Chicago, Illinois, USA — Yesterday and Last 2 Weeks

Now
59 °F

Scattered clouds.


Feels Like: 56 °F
Forecast: 61 / 56 °F
Wind: 18 mph from Northeast

Location: Chicago Midway Airport
Current Time: Sep 18, 2020 at 10:15:35 am
Latest Report: Sep 18, 2020 at 8:53 am
Visibility: 10 mi
Pressure30.33 "Hg
Humidity: 46%
Dew Point: 38 °F
Location of ChicagoLocation

Past Weather in Chicago — Graph

°F

Chicago Temperature Yesterday

Maximum temperature yesterday: 70 °F (at 12:53 am)
Minimum temperature yesterday: 60 °F (at 11:53 pm)
Average temperature yesterday: 65 °F

High & Low Weather Summary for the Past Weeks

 TemperatureHumidityPressure
High87 °F (Sep 3, 12:53 pm)100% (Sep 8, 4:53 am)30.38 "Hg (Sep 8, 4:53 am)
Low57 °F (Sep 4, 5:53 am)16% (Sep 3, 4:53 pm)29.68 "Hg (Sep 3, 12:53 pm)
Average67 °F69%30.09 "Hg
* Reported Sep 3 8:53 am — Sep 18 8:53 am, Chicago. Weather by CustomWeather, © 2020

Note: Actual official high and low records may vary slightly from our data, if they occured in-between our weather recording intervals... More about our weather records

Chicago Weather History for the Previous 24 Hours

Scroll right to see more
 ConditionsComfort  
Time TempWeatherWind HumidityBarometerVisibility
8:53 am
Fri, Sep 18
59 °FScattered clouds.18 mph46%30.33 "Hg10 mi
7:53 am58 °FScattered clouds.16 mph56%30.31 "Hg10 mi
6:53 am57 °FScattered clouds.17 mph60%30.28 "Hg10 mi
5:53 am57 °FPassing clouds.15 mph55%30.26 "Hg10 mi
4:53 am58 °FPassing clouds.14 mph58%30.24 "Hg10 mi
3:53 am59 °FPassing clouds.17 mph58%30.22 "Hg10 mi
2:53 am61 °FPassing clouds.14 mph56%30.20 "Hg10 mi
1:53 am61 °FPassing clouds.12 mph60%30.19 "Hg10 mi
12:53 am61 °FPassing clouds.10 mph58%30.18 "Hg10 mi
11:53 pm
Thu, Sep 17
60 °FPassing clouds.9 mph60%30.18 "Hg10 mi
10:53 pm61 °FPassing clouds.10 mph60%30.16 "Hg10 mi
9:53 pm61 °FPassing clouds.9 mph60%30.16 "Hg10 mi
8:53 pm62 °FPassing clouds.10 mph52%30.16 "Hg10 mi
7:53 pm62 °FPassing clouds.12 mph52%30.15 "Hg10 mi
6:53 pm62 °FScattered clouds.14 mph52%30.14 "Hg10 mi
5:53 pm64 °FPassing clouds.12 mph49%30.13 "Hg10 mi
4:53 pm65 °FPassing clouds.16 mph47%30.12 "Hg10 mi
3:53 pm66 °FPassing clouds.16 mph47%30.12 "Hg10 mi
2:53 pm68 °FPassing clouds.17 mph44%30.13 "Hg10 mi
1:53 pm68 °FPassing clouds.16 mph47%30.13 "Hg10 mi
12:53 pm68 °FPassing clouds.15 mph47%30.14 "Hg10 mi
11:53 am68 °FPassing clouds.21 mph45%30.14 "Hg10 mi
10:53 am68 °FPassing clouds.20 mph47%30.14 "Hg10 mi
Weather by CustomWeather, © 2020

See weather overview